Погода в Виви

Погода в Виви : погода сейчас, прогноз погоды и архив. Всё, что Вы хотите узнать о погоде в Виви!

Поиск расширенной информации на нашем сайте:

Другие новости

Новости СМИ2

Главная страница сайта

Новости сайта

02.10.2013

Напоминаем, что на нашем новом сайте вы можете получить высокодетализированные прогнозы погоды по пунктам России, СНГ и мира (включающие важные для авиации метеовеличины, такие как направление и скорость ветра, видимость, явления погоды, количество и форма облачности, нижняя и верхняя граница облачности), а также ознакомиться с разнообразными материалами по авиационной метеорологии и подборкой полезных ссылок на эту тему.

Сайт Метеоцентр.Азия посвящён разработке технологий оптимизации авиаметеорологического обслуживания, включая проектирование и перспективное создание нескольких автоматизированных авиаметеорологических систем:
- система выпуска высокодетальных прогностических карт явлений погоды для нижнего воздушного пространства по России и ближнему зарубежью;
- система верификации прогнозов TAF (выпускаемых синоптиками официальных АМСГ РФ и ближнего зарубежья) и AUTOTAF (выпускаемых сайтом Метеоцентр.Азия) - выявление ошибок, онлайн-сопоставление с фактической погодой METAR, автоматическое внесение коррективов в прогнозы при резком отклонении фактической погоды от прогноза, подсчёт оправдываемости прогнозов по элементам и в целом;
- система обработки, анализа и отображения авиаметеорологической информации для применения провайдерами метеорологической информации.


Погода в Виви - сегодня

Время (UTC), дата Ветер
(°,м/с) 
Видим.   Явления Облачность Т
(°С)
Тd
(°С)
f(%) Тe
(°С)
Pmin
(гПа)
dP
(гПа)
Po
(мм)
O2
(г/м3)
Тmin Tmax R s Состояние
почвы
21 21.05.17 тихо ()   20000 м    6/3 600 м кучево-дожд., верхняя 
[Cb cap|Ci fib]
-5.2 -16.7 40 -5  1013.9  0.7  738  305           
00 22.05.17 320 (СЗ) 20000 м    3/3 1000 м 
[Sc]
+0.6 -12.2 38 +1  1014.6  1.4  740  298  -5.7         
06 22.05.17 200 (Ю) 20000 м    6/1 1000 м верхняя 
[Sc|Ci fib]
+8.4 -8.3 30 +9  1012.8  -0.9  739  290           
09 22.05.17 тихо ()   20000 м    8/6 1000 м верхняя 
[Sc|Ci sp]
+9.7 -8.1 28 +10  1011.8  -0.9  738  288           
12 22.05.17 160 (Ю) 20000 м    10/1 1000 м средняя, верхняя 
[Sc|Ac As|Ci fib]
+9.2 -8.7 27 +10  1011.3  -0.5  738  288    +11.1       
18 22.05.17 тихо ()   н/о    4/0 средняя 
[As trans]
+2.2 -6.5 53 +2  1009.4  -1.7  736  295           
21 22.05.17 тихо ()   20000 м    10/0 средняя 
[As op]
+3.5 -3.2 61 +4  1006.3  -2.9  734  292           
00 23.05.17 140 (ЮВ) 10 км  слаб. ливневой дождь  10/10 600 м кучево-дожд. 
[Cb cap]
+2.4 +1.6 94 +3  1002.1  -4.1  731  291  +1.5    0.8     
03 23.05.17 230 (ЮЗ) 20000 м  в посл. час ливневой дождь  10/10 600 м кучево-дожд. 
[Cb cap]
+3.7 +2.7 93 +5  998.7  -3.1  728  289           
06 23.05.17 180 (Ю) 10 км  слаб. ливневой дождь  10/10 600 м кучево-дожд. 
[Cb cap]
+6.9 +6.2 95 +8  994  -4.3  725  284           
09 23.05.17 тихо ()   20000 м  {ливн. осадки}  10/10 600 м кучево-дожд. 
[Cb cap]
+13.2 -11.5 17 +13  993.3  747  288           
12 23.05.17 230 (ЮЗ) 20000 м  {ливн. осадки}  10/9 1000 м верхняя 
[Sc|Ci fib]
+15.8 +5.6 51 +17  993.2  725  275    +15.8     
15 23.05.17 200 (Ю) 20000 м    10/10 600 м кучево-дожд. 
[Cb cap]
+15.8 +5.6 51 +17  990.7  -2.4  723  274           
18 23.05.17 270 (З) н/о    6/6 600 м кучево-дожд. 
[Cb cap]
+10.1 -0.7 47 +10  994.5  3.2  726  282           
00 24.05.17 270 (З) 20000 м    6/3 600 м кучево-дожд., верхняя 
[Cb cap|Ci fib]
+4.7 -7.9 40 +6  1001.8  0.8  730  290  +3         
03 24.05.17 290 (З) 20000 м    6/4 1000 м верхняя 
[Sc|Ci fib]
+8.5 -4.4 40 +10  1000  -0.4  729  285           
06 24.05.17 290 (З) 20000 м    10/10 1000 м 
[Sc]
+10 -5.1 34 +11  999.1  -0.8  729  284           
12 24.05.17 360 (С) 20000 м    10/10 1000 м 
[Sc]
+8.6 -1.6 49 +10  997.7  0.4  728  284    +10.9       
15 24.05.17 тихо ()   20000 м    10/10 1000 м 
[Sc]
+5.7 -1.6 59 +6  999.3  1.2  729  288           
18 24.05.17 тихо ()   н/о    10/10 1000 м 
[Sc]
+3.9 -1.6 67 +4  1000.8  1.3  730  290           
21 24.05.17 тихо ()   20000 м    10/10 1000 м 
[Sc]
+4.1 -5.7 49 +4  1001.1  0.4  730  290           
03 25.05.17 140 (ЮВ) 20000 м    10/10 1000 м 
[Sc]
+6.9 +4.4 84 +8  998.2  -1.1  728  285           
06 25.05.17 090 (В) 20000 м    10/10 1000 м 
[Sc]
+8.8 +6.4 85 +10  994.1  -3.8  725  282           
09 25.05.17 230 (ЮЗ) 20000 м    10/10 600 м 
[Sc]
+10.7 +8.5 86 +10  992.7  -1.2  724  279           
12 25.05.17 270 (З) 20000 м    8/8 1000 м 
[Sc]
+9.3 +2.7 63 +9  997.7  4.7  728  283    +11.1       
Время (UTC), дата Ветер
(°,м/с) 
Видим.   Явления Облачность Т
(°С)
Тd
(°С)
f(%) Тe
(°С)
Pmin
(гПа)
dP
(гПа)
Po
(мм)
O2
(г/м3)
Тmin Tmax R s Состояние
почвы

Для получения пояснительной информации подведите курсор к названию столбца.

ПОГОДА в Виви - архив

Всё, что Вы хотите узнать о погоде в Виви - удобно и подробно!

Выберите нужную дату (начиная с 1 января 2015* года) и нажмите кнопку "Найти".
Будут отображены архивные сводки погоды по пункту Виви, начиная с указанной даты.


Отображать данные в формате CSV (для использования в таблицах Excel)


Внимание! Наш архив погоды предназначен исключительно для личного некоммерческого использования в познавательных целях. Если Вам необходимы официальные справки о состоянии погоды (для производственных, юридических, коммерческих и т.п. целей), обращайтесь в органы Росгидромета.

*Примечание: данная дата относится к архиву по метеостанциям СССР (Россия, СНГ, Балтия).
Архив по метеостанциям Зарубежной Европы и Азии (кроме Китая) хранится 10 дней, по другим регионам земного шара (Китай, Африка, Америка, Австралия, Океания) - 1 день.

Виви - район местоположения метеостанции


Название, широта, долгота, высота метеостанции:
Виви 63.9°ш. 97.8°д. 109 м над ур. моря [Российская Федерация]

Дополнительная информация

В oтличие oт бoльшинства пoгoдных сайтoв мы публикуем пoдрoбную метеoинфoрмацию в детальнoм прoфессиoнальнoм фoрмате.

Характеристики температуры и влажнoсти вoздуха измеряются на высoте 2 м в тени вдали oт зданий и деревьев.
Скoрoсть ветра измеряется на высoте 10 м (на урoвне рoста челoвека скoрoсть ветра ниже в 1.5-2 раза). Если метеoстанция нахoдится в гoрoде или в лесу, тo скoрoсть ветра занижена на 2-4 м/с пo сравнению с oткрытым местoм. Скoрoсть ветра над акватoриями крупных рек и oзёр, а также на вершинах хoлмoв на 2-5 м/с выше, чем в oбычных услoвиях.
Атмoсфернoе давление в разных тoчках местнoсти мoжет значительнo oтличаться oт давления на метеoстанции, в зависимoсти oт услoвий рельефа (при пoдъёме на 10 м давление пoнижается примернo на 1 мм рт.ст.).